Voltar ao catálogo

STARLINK-33937

AtivoComunicaçõesVLEO
NORAD 63704·PAYLOAD·🇺🇸 United States

Lançado Apr 28, 2025 de Vandenberg Space Force Base

Loading…

Próximas Passagens (próximas 24 horas)

TLE

AtualizadoSource: CelesTrak SupGP

Época: Sep 14, 2026, 14:42 UTC

1 63704C 25087H   26257.61298611 -.00036986  00000+0 -10930-2 0  2573
2 63704  53.1603  61.2453 0000786  85.2344 346.5670 15.34402535    12

Acompanhe STARLINK-33937 em tempo real com AllMySat

Download on the App Store